Theta_e
357 356 355 354 354 354 354 354 354 350 345 347 346 342 336 329 326 325 328 327 334 340 347 340 339 348 347 345 348 350 349 352 354 349 350 351 351 350 347 347 347 347 347 346 346 347 348 349 350 351 351 352 354 355 354 353 352 352 352 352 351 351 350 349 348 347 348 348 347 347 347 349 350 350
354 355 355 356 355 356 355 354 353 353 349 350 349 345 342 338 334 331 328 328 333 337 341 340 342 345 349 351 350 349 348 353 353 349 348 350 352 350 346 345 345 345 345 344 343 344 345 346 346 347 348 349 350 350 351 351 351 351 351 351 351 351 351 348 346 346 346 346 347 347 348 349 350 349
352 352 352 352 353 355 355 353 352 356 351 348 347 345 346 342 339 337 331 327 330 341 338 342 347 349 348 352 352 353 352 354 354 350 349 348 351 350 350 347 345 344 343 342 342 342 342 341 341 343 344 345 345 346 347 347 348 350 349 349 349 349 349 347 345 346 345 345 346 346 347 348 348 348
353 351 351 352 352 353 353 352 352 355 353 351 348 349 347 341 341 340 335 332 333 337 341 342 346 350 349 350 350 350 351 353 356 351 351 351 353 351 349 349 347 345 343 342 341 340 339 337 338 340 342 343 344 345 347 347 349 348 346 346 345 343 343 342 343 344 344 345 345 345 345 346 347 347
352 351 349 350 352 354 354 353 352 355 353 352 349 350 347 346 344 341 338 335 337 340 341 344 347 350 352 351 348 348 349 350 351 353 351 351 350 350 349 349 347 344 343 341 340 339 338 336 337 338 340 342 344 345 344 344 343 340 340 341 337 337 338 339 341 342 343 343 344 344 344 345 346 347
354 351 349 350 350 352 354 353 353 353 353 353 351 349 350 348 348 346 343 340 338 339 340 343 346 349 353 351 346 349 350 350 350 351 352 353 352 352 352 351 353 347 345 343 341 340 339 337 336 337 338 339 340 341 341 340 336 336 337 335 333 333 334 335 337 338 339 341 342 342 343 344 345 346
353 352 351 351 350 352 351 351 352 353 352 352 352 351 351 350 350 350 347 343 340 340 342 342 345 346 349 348 351 351 351 351 351 351 353 355 356 356 356 355 356 350 346 344 342 340 339 337 335 335 335 338 337 337 336 333 333 333 332 331 332 332 333 332 332 334 336 336 338 340 341 341 342 343
352 352 352 353 352 351 351 350 350 351 351 350 350 350 350 351 351 352 351 348 345 344 343 342 347 347 346 350 351 352 353 353 354 354 356 356 356 357 358 357 357 354 348 345 341 340 338 337 337 337 337 336 334 334 333 333 333 332 333 331 329 329 329 328 327 329 329 330 329 332 335 337 339 340
353 352 352 352 352 351 351 350 350 350 349 350 349 349 349 351 352 352 352 352 349 346 345 345 345 348 348 349 352 352 353 353 352 351 353 356 357 357 358 359 361 353 348 347 345 345 344 344 341 339 338 336 334 334 334 334 333 332 329 325 326 328 328 327 326 326 326 325 325 327 330 333 334 334
355 353 353 353 352 351 350 350 350 351 350 350 349 348 347 349 351 351 351 351 351 349 349 347 347 341 346 345 348 350 350 352 352 352 351 352 353 351 353 355 359 362 361 360 360 351 348 345 340 341 339 336 335 334 334 335 333 330 328 323 324 327 324 323 324 324 324 323 322 323 325 328 329 331
355 355 354 354 353 351 350 350 349 350 350 351 350 350 349 348 347 348 348 349 348 348 347 345 345 345 346 347 349 349 350 350 350 350 350 349 346 348 349 352 355 359 359 354 350 350 348 346 347 338 334 335 336 335 333 334 334 330 326 323 324 323 323 324 322 321 322 324 323 323 322 321 323 327
355 355 355 355 354 354 352 351 350 350 350 350 350 351 350 350 348 347 347 347 347 346 346 345 346 343 345 345 349 351 346 346 344 347 346 347 348 345 345 347 351 350 350 352 354 350 349 349 348 342 342 342 340 336 338 341 337 331 326 324 328 326 323 322 322 321 321 322 322 322 323 322 321 322
353 354 356 356 356 356 362 360 357 356 356 351 349 350 350 350 349 348 348 347 345 344 345 345 345 345 348 348 348 348 345 342 345 344 346 346 344 341 345 345 346 350 349 350 352 352 352 351 350 350 350 350 349 346 341 337 336 330 325 325 327 326 324 322 322 321 320 320 320 320 322 321 320 319
353 353 354 356 365 364 362 355 352 349 353 359 354 351 350 350 350 349 348 347 347 346 345 344 344 345 346 347 347 347 347 347 345 344 341 342 341 339 342 341 343 348 347 348 349 350 352 350 349 349 348 350 349 345 336 332 331 328 326 326 326 325 324 322 321 320 319 319 319 319 318 320 321 319
352 353 353 353 359 365 369 360 349 346 345 346 350 353 357 359 352 349 348 348 347 346 346 345 345 344 346 348 350 349 350 347 346 342 338 340 339 339 339 341 343 346 348 346 344 348 350 347 346 347 347 348 347 338 333 329 328 326 326 326 325 324 324 323 323 321 319 319 319 318 317 318 319 320
352 352 353 353 354 355 357 357 357 351 345 341 342 344 346 350 353 354 352 349 347 346 347 347 348 347 348 349 349 350 347 345 341 338 337 340 341 340 339 335 339 345 350 345 340 344 348 345 344 344 345 346 344 335 329 328 326 325 325 325 323 322 322 323 323 322 320 319 319 318 317 318 318 318
352 351 351 351 353 354 364 364 358 355 354 345 338 339 342 346 345 340 341 346 353 350 349 348 348 349 349 349 351 347 347 344 342 337 340 338 340 339 339 339 335 347 348 343 337 338 346 343 340 341 342 343 340 337 330 328 327 325 324 323 323 322 322 321 321 321 321 319 317 315 315 316 316 316
353 352 351 351 351 352 354 355 355 354 353 352 351 348 345 345 348 346 340 338 342 348 353 351 350 351 350 351 350 348 344 342 340 340 340 338 340 340 342 340 342 347 349 344 339 336 339 340 339 337 337 340 337 337 329 327 326 324 323 322 321 320 320 320 320 319 318 318 317 316 313 312 312 313
352 353 353 352 351 351 351 352 354 352 352 351 350 348 347 346 346 346 347 348 348 348 350 350 351 351 348 347 347 346 344 343 345 346 346 347 345 341 340 340 342 345 345 343 340 335 337 337 333 332 333 336 334 335 329 327 326 324 323 322 321 319 319 320 319 318 317 317 316 315 313 312 312 312
352 352 352 352 352 351 351 354 347 353 352 350 349 347 347 346 346 346 350 340 344 351 350 350 350 350 350 344 350 346 345 345 346 348 345 344 341 339 338 338 339 339 342 341 337 333 332 336 331 329 331 333 332 332 333 329 327 324 322 321 320 317 317 318 318 318 317 317 316 315 313 311 310 312
352 352 352 351 352 352 351 347 335 336 353 349 348 347 346 347 346 347 349 339 332 333 333 333 335 335 335 333 331 331 333 344 345 345 341 340 339 339 337 335 335 336 338 338 338 335 331 332 330 330 327 329 330 330 331 332 328 323 320 319 318 316 314 315 316 316 316 316 315 314 313 310 310 315
350 352 362 361 352 351 351 340 332 331 341 347 348 348 347 347 347 348 351 353 349 329 328 330 331 331 331 332 333 334 330 333 344 348 344 341 339 342 338 337 333 334 335 336 339 329 329 330 327 328 327 325 329 329 330 331 330 327 325 318 316 315 314 313 313 314 315 315 314 313 312 311 313 317
351 350 357 362 356 352 348 335 331 330 337 345 346 347 347 347 347 350 352 354 355 351 347 348 345 345 341 342 341 341 335 337 348 348 348 343 343 342 339 338 333 327 330 336 337 328 325 326 326 325 321 320 321 326 329 329 329 328 327 326 321 315 315 313 313 311 313 313 313 313 311 310 312 317
350 351 351 351 338 333 333 330 327 326 325 343 347 347 346 346 347 352 353 355 356 355 354 352 348 348 343 343 342 341 340 341 349 346 346 346 345 343 339 339 335 324 325 336 336 328 327 327 327 326 324 320 319 322 325 326 326 325 323 321 318 317 318 318 315 313 311 311 311 312 310 310 311 315
350 350 351 352 341 330 327 325 323 321 321 329 347 348 347 348 348 350 350 354 367 355 351 348 345 344 342 342 342 341 340 341 344 345 344 345 345 344 341 338 335 329 330 337 335 329 326 327 326 324 323 321 321 320 319 321 325 324 324 320 316 315 316 315 316 314 313 312 311 310 310 310 311 313
351 351 350 350 342 328 323 321 319 317 318 321 339 348 333 333 334 347 351 351 351 352 349 346 342 342 342 342 342 342 342 343 344 346 345 344 346 347 346 341 334 329 326 335 331 331 328 326 327 323 322 319 319 319 317 319 324 324 322 320 319 315 315 314 313 313 313 314 314 311 311 311 312 313
351 352 352 353 342 328 321 317 316 316 316 321 330 325 325 326 330 346 350 350 350 346 346 345 343 342 343 343 343 343 343 345 346 347 347 345 346 346 345 337 334 328 326 331 340 335 330 327 328 323 321 318 317 317 316 317 319 320 317 316 318 316 315 313 313 314 314 314 314 312 310 311 312 313
353 352 352 348 333 324 318 316 316 316 318 328 320 317 321 326 335 345 349 350 350 346 344 343 343 344 345 345 344 344 344 345 347 348 347 345 346 341 340 340 342 333 330 335 337 335 333 330 328 324 323 320 317 315 315 319 320 316 313 314 317 316 315 314 312 315 315 314 312 312 311 311 314 315
353 340 332 329 325 324 319 317 318 318 317 316 318 319 322 337 341 345 348 349 348 346 345 345 346 346 346 347 347 346 343 344 342 344 345 344 341 340 337 335 337 339 342 340 336 335 331 329 328 327 323 319 319 319 318 317 315 313 315 312 309 312 315 313 312 311 314 313 311 311 310 310 312 315
338 332 327 325 324 324 326 333 335 338 340 327 323 323 329 335 342 345 347 347 347 348 347 346 346 347 345 343 345 343 342 339 336 338 336 335 336 335 335 334 333 334 337 337 335 332 330 328 326 324 322 321 320 321 319 316 312 312 315 312 312 314 315 312 312 311 312 311 311 311 310 311 313 316
344 341 339 339 332 333 332 334 335 335 338 338 338 332 334 337 342 346 348 349 349 348 349 346 346 344 342 338 341 339 338 336 336 337 336 334 334 334 332 330 331 332 333 334 333 332 329 327 325 322 320 320 322 319 319 315 312 312 312 313 312 307 310 312 312 311 310 311 310 309 309 309 311 317
348 346 339 331 337 338 339 339 339 340 339 340 338 336 335 337 341 346 353 354 347 348 348 347 343 338 336 336 337 335 336 335 335 337 335 335 333 333 331 329 329 329 328 330 330 332 333 326 325 325 323 322 319 317 314 313 312 312 312 315 315 310 312 310 310 311 311 310 307 307 307 307 309 311
344 341 340 341 340 340 341 341 341 341 339 338 337 338 337 339 341 343 345 347 347 347 345 345 345 342 337 334 331 332 333 333 334 334 333 334 333 332 330 327 327 325 323 324 325 324 324 324 327 324 323 321 323 320 315 312 313 312 311 311 311 309 308 309 310 311 311 309 307 307 305 308 309 311
343 344 344 345 345 344 343 343 342 342 340 338 337 338 333 339 341 342 343 345 346 346 346 346 343 337 336 334 330 331 332 334 336 333 330 332 332 329 326 326 326 327 323 323 322 321 321 319 320 320 321 320 320 318 316 314 311 312 311 308 309 307 308 310 310 309 309 307 305 305 306 305 308 309
340 343 343 345 346 345 346 345 346 344 342 340 339 339 339 340 340 337 339 338 338 341 343 337 336 337 337 335 331 330 330 332 336 334 331 332 331 328 326 325 325 323 322 322 322 321 319 317 316 315 313 313 313 314 321 315 312 312 311 310 308 309 309 310 311 310 307 307 304 305 306 306 306 307
338 342 344 345 346 346 346 345 345 345 346 343 343 342 341 340 337 337 337 336 339 338 338 337 336 336 336 334 332 331 330 330 332 331 329 329 328 325 324 324 324 322 320 319 322 321 318 316 315 313 311 308 308 307 308 320 320 312 311 309 308 308 309 308 308 307 307 305 305 303 303 303 305 308
339 341 343 345 346 346 345 346 346 346 347 347 346 345 342 337 337 338 337 332 339 339 339 337 336 336 335 333 330 329 330 329 329 326 325 326 326 325 324 326 327 322 321 320 321 322 319 316 314 312 309 307 306 306 308 310 313 315 313 310 308 309 309 307 306 306 305 305 303 303 303 302 304 307
339 341 341 343 344 346 346 347 346 345 347 344 342 342 342 338 337 338 338 337 338 337 336 337 334 333 333 332 330 328 329 328 329 327 324 324 324 322 320 317 318 318 319 320 321 321 319 316 314 312 311 308 306 306 306 308 311 313 313 311 308 308 311 308 305 303 303 303 303 304 303 302 303 305
339 340 340 341 343 345 345 346 346 344 341 341 340 339 338 338 339 337 333 335 337 336 336 335 333 331 330 332 329 326 325 326 327 327 324 324 324 322 318 318 317 316 318 318 317 321 319 315 315 314 312 310 308 307 308 308 309 311 311 307 309 308 309 308 305 304 303 302 303 303 304 305 306 311
338 340 342 342 342 344 344 343 341 340 339 339 339 340 338 336 338 337 333 333 334 333 335 334 333 328 330 330 328 326 324 324 325 326 325 324 322 322 319 318 317 316 316 316 317 316 318 317 317 315 314 314 315 315 312 310 310 311 310 308 305 310 311 309 306 305 305 303 302 301 301 301 302 302
337 338 340 342 343 341 339 339 339 337 338 338 338 333 337 336 337 337 335 334 332 332 331 330 329 329 329 327 327 326 323 323 323 324 324 324 322 321 321 319 316 316 316 316 316 315 318 320 323 322 322 316 315 316 314 312 311 309 308 310 307 305 307 311 309 305 305 303 303 301 301 301 300 300
336 336 340 342 343 338 338 338 338 336 335 337 338 335 334 334 334 330 332 331 332 330 329 327 327 327 327 327 327 324 323 322 321 322 322 321 321 319 319 318 316 316 316 315 316 318 320 320 322 323 322 318 315 312 310 310 310 310 310 308 309 308 306 307 309 310 306 303 302 301 300 299 297 298
337 338 335 331 332 334 336 334 333 334 335 335 334 333 333 333 332 330 331 330 331 330 329 327 328 328 327 326 325 324 323 322 321 322 321 320 320 318 318 318 317 318 318 318 317 317 318 318 319 319 318 316 316 314 312 312 311 309 308 308 308 308 308 309 308 308 309 310 308 306 303 302 301 299
334 330 329 330 331 331 331 332 331 331 332 332 331 332 331 330 329 329 329 329 329 329 328 328 328 328 326 326 326 325 324 323 322 321 321 319 319 318 318 318 317 317 316 316 316 317 318 318 318 319 316 314 313 312 313 312 311 311 311 309 308 306 308 306 306 308 308 309 309 309 308 308 308 308
328 327 326 325 326 327 328 330 330 331 331 330 330 329 327 328 327 328 328 328 328 329 328 327 327 327 325 325 323 321 319 319 319 318 318 319 318 317 316 317 316 316 316 316 316 316 315 315 315 315 315 314 313 314 315 314 312 312 311 308 309 308 307 306 305 305 304 306 308 310 309 309 309 310
Wind_Speed
5 4 4 6 5 5 3 2 3 3 3 5 5 5 6 5 2 1 2 3 1 2 0 0 2 1 0 2 2 3 4 7 7 4 4 5 6 9 13 14 14 15 15 16 16 17 17 17 18 18 19 19 18 16 19 19 18 18 18 18 19 19 19 18 18 18 19 19 19 18 18 17 18 18
4 4 4 4 5 4 3 4 3 2 4 5 5 5 4 6 5 5 2 4 3 3 2 0 1 3 4 2 2 3 5 7 7 5 4 5 6 11 13 13 13 14 14 14 15 16 17 17 18 18 18 17 17 18 18 18 18 18 18 18 18 18 18 18 17 18 18 18 19 19 19 18 18 18
4 4 5 4 5 4 4 3 3 3 3 4 4 4 5 4 5 5 4 1 4 2 2 2 1 1 4 4 4 4 4 6 5 4 4 4 8 11 9 12 13 13 14 14 15 16 17 17 17 17 16 16 16 16 15 15 16 16 17 17 17 17 17 17 16 17 17 17 18 18 18 19 19 19
5 4 5 4 5 5 3 3 3 5 4 4 5 5 5 4 4 5 4 4 8 3 3 3 5 4 3 4 4 6 5 5 5 3 3 5 8 7 6 10 13 14 14 14 15 16 16 16 16 15 15 14 14 13 14 14 14 15 15 15 15 15 15 15 14 15 15 16 16 17 17 18 18 19
4 5 5 5 5 4 4 5 4 4 4 4 3 3 4 5 3 4 4 4 7 5 3 4 4 2 1 3 3 4 5 5 4 3 3 4 5 5 6 7 11 13 14 14 15 15 15 15 14 14 13 13 13 13 13 13 14 14 14 13 13 13 13 13 13 13 14 15 15 15 16 16 17 17
5 4 5 5 6 4 5 5 5 5 3 4 4 4 4 5 5 5 5 6 4 7 3 3 3 3 3 3 3 4 6 6 4 4 5 4 4 6 6 6 7 11 12 13 13 13 13 13 12 12 12 12 12 13 13 13 13 14 13 12 11 11 11 11 11 12 12 13 14 14 15 15 15 16
5 5 5 6 5 4 4 5 5 4 5 5 5 6 5 5 5 5 6 4 5 6 7 2 3 2 2 4 6 5 4 4 4 4 6 6 5 4 5 6 6 10 11 11 12 13 11 10 10 10 10 11 11 12 13 13 12 12 12 13 12 10 9 10 10 11 11 12 12 13 14 14 14 14
7 7 6 6 6 5 5 6 5 5 4 5 5 5 5 5 6 5 5 6 6 5 6 3 3 4 3 5 5 5 4 4 4 3 5 5 5 6 5 5 6 7 9 10 11 9 8 8 9 10 11 12 12 13 13 14 14 15 16 15 16 16 14 11 10 10 10 10 11 12 12 13 13 14
8 8 8 8 5 4 6 6 6 6 5 6 5 5 5 5 6 5 5 6 6 6 7 5 3 3 3 4 5 4 5 5 3 3 4 5 6 5 5 4 4 6 8 7 7 8 10 12 12 12 12 13 14 14 14 14 15 16 16 16 15 14 14 14 12 11 10 10 10 11 11 11 11 12
8 8 9 8 6 6 6 7 6 6 7 6 6 6 6 6 5 5 6 5 5 6 7 6 5 3 5 4 4 4 3 5 6 4 4 4 4 2 4 4 3 2 3 4 5 6 8 10 12 12 13 14 14 14 14 15 16 15 15 15 13 12 12 12 12 12 12 11 11 11 11 11 10 10
8 8 8 8 7 7 7 7 7 7 6 6 7 8 7 6 5 5 6 5 6 6 6 4 5 5 4 4 8 2 1 2 3 4 6 5 3 2 3 4 4 4 4 4 6 6 7 8 7 10 13 13 13 14 14 14 14 13 13 12 11 12 13 14 15 15 15 14 13 11 11 10 10 8
8 9 8 8 8 8 8 8 7 7 7 6 7 7 6 6 6 6 5 5 5 5 4 5 6 4 5 4 5 3 2 3 2 2 2 5 7 3 3 2 4 4 3 4 5 3 5 6 8 9 10 11 12 12 10 12 11 10 9 10 13 15 16 16 17 17 17 17 17 14 12 10 8 8
8 8 8 8 8 9 12 13 11 9 9 6 7 7 6 6 6 6 5 6 5 5 4 6 4 5 7 7 7 8 4 3 5 2 0 3 3 2 3 4 2 2 3 3 3 4 4 6 6 6 7 7 8 8 9 7 8 8 10 14 16 16 17 18 18 17 18 18 18 18 16 13 11 9
9 9 9 9 13 15 15 14 14 14 14 13 10 8 7 7 7 7 6 6 6 5 5 6 5 6 8 8 6 6 4 0 1 2 1 2 3 3 2 1 1 1 2 6 7 6 3 4 6 6 6 5 5 5 5 5 4 9 13 15 16 17 17 17 17 17 17 17 17 18 18 17 14 11
10 9 10 9 11 12 13 12 15 15 16 15 16 16 14 11 9 7 7 7 6 5 6 5 4 6 8 10 6 5 4 0 1 2 1 1 1 2 4 7 4 0 1 4 4 7 4 3 5 6 6 4 4 6 5 6 10 13 15 16 16 17 17 17 16 16 16 16 17 17 18 18 17 15
10 10 9 9 8 8 9 9 9 12 15 16 16 16 15 15 15 13 10 8 6 5 6 6 7 5 8 10 6 6 3 2 1 1 2 1 1 2 2 2 3 3 0 0 1 5 4 2 2 4 4 4 3 5 6 8 13 16 16 16 16 18 18 18 18 18 18 18 17 17 17 17 17 16
11 10 9 9 8 8 13 11 9 8 9 13 16 16 15 14 13 13 14 12 10 7 6 7 8 7 6 8 7 2 1 1 0 2 1 2 1 1 2 4 2 4 2 1 0 2 5 3 2 4 3 4 3 5 7 9 16 16 16 16 16 17 17 17 17 17 17 17 17 18 17 17 17 16
11 11 10 10 10 9 9 9 9 8 8 8 8 8 8 9 11 13 13 13 13 7 7 7 9 7 5 9 7 4 1 2 4 2 4 2 3 3 4 3 3 4 1 1 1 1 4 2 2 4 3 3 4 3 7 13 15 16 15 15 14 14 15 16 15 14 14 15 16 17 17 17 17 16
12 11 11 11 11 10 10 9 10 9 9 8 8 8 8 9 9 9 9 8 8 8 7 7 9 8 5 7 7 6 1 2 4 4 5 5 3 2 0 0 2 3 1 3 3 1 3 2 2 4 2 2 6 4 8 12 14 14 14 14 13 14 14 13 13 12 12 13 14 15 16 17 16 16
11 11 11 11 11 11 10 13 16 14 9 8 9 9 8 8 7 8 10 12 10 10 10 10 10 9 9 9 8 2 0 2 3 4 3 3 3 1 1 2 1 0 1 2 3 1 1 1 1 3 2 4 6 5 6 9 11 12 13 12 12 12 10 10 10 10 10 11 12 13 14 15 16 15
11 11 11 11 11 11 11 13 15 15 13 8 9 9 9 8 7 9 8 8 11 12 13 14 14 14 13 13 11 5 7 6 6 5 3 5 3 2 4 2 0 0 1 1 1 2 1 1 1 5 1 3 4 6 6 5 9 9 11 11 10 10 8 7 7 9 10 10 12 14 15 15 15 15
10 11 16 15 12 12 13 15 15 16 12 9 9 8 8 8 8 9 7 4 6 13 14 14 14 11 10 11 11 7 7 10 9 7 8 4 5 5 4 4 2 1 1 1 1 1 1 0 0 2 2 2 2 4 5 5 6 7 5 8 9 7 6 4 5 7 11 12 14 14 15 14 13 9
10 11 13 19 17 14 16 17 16 17 14 11 12 11 9 10 10 12 7 6 5 4 4 5 6 6 9 8 7 7 9 11 10 8 7 5 5 6 5 3 1 1 2 3 2 0 1 2 0 1 2 2 2 0 3 5 4 4 4 5 6 8 7 7 6 8 9 12 14 14 14 14 10 6
10 11 10 13 18 20 19 18 17 17 17 13 12 9 9 10 13 10 6 7 7 5 6 5 5 5 3 4 5 5 6 6 7 7 6 6 6 6 5 5 6 4 4 5 4 2 1 1 1 0 2 2 0 2 4 4 3 2 2 3 3 6 6 6 6 8 10 11 13 14 13 14 12 6
11 10 10 10 14 18 19 19 19 18 17 16 12 11 11 12 14 6 5 7 9 6 5 4 3 4 4 5 5 5 6 7 6 6 6 5 5 6 6 7 7 6 5 6 6 3 3 3 2 1 2 2 2 0 2 2 3 3 3 3 3 4 3 3 4 5 7 9 10 12 12 13 15 11
10 11 10 11 14 18 18 18 17 16 15 17 11 13 16 16 14 8 6 5 5 5 5 5 5 5 5 5 5 5 6 6 6 6 6 5 6 7 7 8 7 5 4 5 8 4 5 2 3 3 1 1 1 1 0 1 1 4 4 4 4 3 2 3 4 5 6 6 7 9 10 14 13 14
12 11 11 12 17 18 18 17 16 15 15 10 11 18 16 13 12 8 6 5 5 5 5 5 5 5 6 6 6 6 5 5 6 6 6 6 6 5 4 3 5 6 5 1 3 3 3 3 4 7 3 2 1 0 1 1 2 3 5 6 4 3 3 4 7 8 9 8 7 9 7 8 10 12
11 11 11 12 17 18 17 17 16 16 14 12 16 15 15 11 6 5 6 6 5 5 6 6 6 6 6 6 5 5 5 5 7 6 5 5 5 4 4 4 3 4 1 2 3 3 3 4 4 4 7 6 5 2 2 1 2 2 3 5 5 4 5 6 7 7 8 7 8 8 7 7 6 5
11 13 17 17 17 16 16 16 15 12 13 16 15 15 13 10 5 6 6 6 5 6 7 7 7 7 7 6 5 4 3 3 2 3 3 3 4 4 4 4 2 2 2 4 3 4 4 5 6 5 4 3 5 3 5 4 3 2 2 3 3 5 5 6 5 6 7 7 7 7 8 8 8 8
19 18 16 16 16 13 11 9 7 8 10 14 16 16 10 5 6 5 5 5 6 7 7 8 8 7 4 3 3 2 2 4 5 6 6 5 3 3 4 3 0 1 1 2 5 6 5 5 6 6 6 4 5 6 5 5 1 1 1 2 4 3 2 6 6 5 5 7 6 5 6 6 7 8
12 12 11 8 8 8 11 12 11 10 10 8 7 5 5 6 6 7 7 8 9 8 8 7 7 4 2 2 4 4 5 5 5 5 7 6 5 4 4 4 5 5 5 4 5 6 6 5 5 5 7 5 4 4 4 4 3 1 1 1 4 4 5 6 5 5 5 5 5 5 3 3 5 6
11 6 1 2 3 5 6 7 6 6 6 7 6 5 5 6 6 8 10 8 5 6 6 5 2 2 3 4 5 4 4 4 4 5 5 5 5 5 5 4 4 5 5 4 2 2 2 3 4 4 6 7 5 3 1 2 4 3 2 0 1 2 3 5 7 7 4 4 5 6 5 5 6 6
6 3 4 5 6 6 8 8 8 7 6 6 5 5 5 5 6 6 6 8 8 7 5 6 6 6 3 2 3 4 5 4 5 3 4 3 5 3 2 5 6 7 8 6 5 3 1 2 2 4 5 3 5 7 5 1 1 2 2 1 0 2 4 4 4 7 7 4 4 4 4 5 5 6
8 9 9 9 10 9 8 9 8 8 7 6 6 6 5 6 6 7 6 5 4 4 7 7 4 3 4 5 5 6 6 5 5 5 5 5 5 5 4 6 5 5 6 7 6 6 4 2 4 4 3 2 1 4 4 3 2 3 3 2 1 1 3 3 4 4 5 3 5 8 7 6 5 6
10 10 10 11 11 11 10 11 11 9 8 7 7 7 7 6 5 6 6 1 3 5 1 1 3 5 6 7 7 7 7 7 6 5 4 5 6 6 6 6 6 6 6 6 6 6 4 3 4 3 3 5 3 2 3 2 3 2 2 1 3 3 3 2 3 4 3 4 3 6 6 4 4 3
11 11 12 12 12 12 12 12 10 8 8 7 8 7 7 6 8 7 12 8 2 2 6 7 7 8 9 9 9 8 7 6 5 5 5 5 5 5 4 5 6 6 5 6 7 5 3 5 5 5 3 2 3 4 3 2 2 5 5 2 2 3 4 3 2 3 4 5 3 3 5 6 8 7
11 11 12 13 12 12 12 11 10 9 8 8 7 5 5 9 8 10 12 6 8 8 9 10 11 10 9 9 8 7 6 6 6 5 5 5 4 5 5 3 4 5 5 4 4 5 4 3 3 5 5 3 1 2 5 3 4 3 5 5 3 3 4 2 1 3 5 3 5 2 2 2 5 7
13 12 11 11 11 12 11 11 9 8 6 5 6 3 4 10 10 14 3 7 9 10 10 9 3 3 6 8 7 6 6 6 6 6 6 5 5 5 6 6 5 4 4 1 2 5 5 5 6 5 5 4 3 3 3 3 2 4 8 6 5 5 3 3 3 4 4 2 4 3 2 2 3 4
9 9 10 11 13 13 12 10 6 3 8 6 5 8 9 9 10 7 8 10 10 7 6 4 4 3 2 4 5 6 6 6 7 7 7 6 7 7 6 6 5 3 2 2 1 3 4 3 5 5 6 6 5 5 5 3 4 4 3 6 3 3 5 6 6 5 4 3 4 4 5 5 4 5
11 11 11 10 10 8 3 6 9 6 5 9 9 10 8 8 10 10 9 8 8 7 7 7 7 6 5 5 5 4 5 6 7 7 7 7 6 7 7 6 6 5 3 3 2 1 5 6 5 6 6 8 6 3 3 3 1 1 1 2 5 6 6 6 6 5 3 5 2 1 4 2 2 2
1 4 7 6 6 0 8 3 4 7 9 8 11 12 9 10 10 8 7 7 7 7 7 7 7 7 7 7 6 6 5 5 5 5 5 6 6 7 7 5 3 4 6 5 4 3 5 7 10 11 3 1 3 5 2 1 3 3 3 6 4 3 5 6 5 5 4 1 0 2 4 4 3 3
5 9 10 7 4 5 6 8 8 7 8 10 10 9 8 7 7 10 8 6 6 7 6 6 6 6 6 6 6 6 6 6 6 5 6 7 7 6 5 4 5 3 4 6 5 6 6 2 1 1 2 3 3 2 4 6 5 5 4 4 3 4 2 2 3 4 3 3 2 2 2 2 0 3
10 7 2 1 3 5 7 6 5 6 6 5 5 5 5 5 5 7 6 6 5 6 6 5 3 4 5 5 6 6 6 6 5 5 5 6 6 6 5 5 5 6 6 6 4 3 4 1 0 2 3 5 4 5 5 6 5 4 3 4 4 4 3 2 1 1 1 4 6 6 3 2 1 1
3 4 3 2 3 4 6 6 6 5 6 5 5 5 5 7 7 6 6 6 6 6 4 5 5 6 6 5 4 4 5 6 6 6 6 6 6 6 5 4 5 4 4 3 2 3 2 2 1 4 4 3 4 4 5 3 5 4 5 3 2 3 7 3 2 4 5 6 8 9 10 9 8 6
5 6 6 5 5 5 4 3 6 7 7 7 7 7 7 8 7 7 6 4 3 2 3 4 5 4 3 4 5 4 2 3 5 4 5 5 5 5 3 3 3 2 1 0 1 2 2 2 1 1 1 1 2 3 4 3 4 4 2 2 5 4 4 2 4 6 5 6 8 9 8 6 6 7
Wind_Direction
221 223 216 212 229 238 197 217 236 191 174 181 171 164 168 158 151 250 303 281 245 307 291 275 312 57 288 254 272 261 262 270 272 263 244 247 250 256 252 249 249 251 253 254 257 259 262 264 266 267 269 270 270 267 273 273 272 270 269 269 268 267 266 263 260 258 256 254 251 248 247 244 242 241
216 220 223 219 226 239 203 204 209 186 191 169 176 187 176 152 165 179 193 269 225 253 303 219 287 325 345 302 281 206 246 245 249 248 243 240 247 252 256 259 259 258 257 259 260 262 263 265 268 270 272 275 276 276 276 278 279 280 279 276 275 273 271 270 266 263 259 257 255 253 251 248 245 245
213 218 221 227 236 243 233 214 184 205 189 191 180 184 150 170 146 160 153 212 287 187 255 291 250 334 312 321 326 308 287 279 276 275 271 268 268 270 273 269 267 266 263 261 261 262 263 265 268 272 275 278 278 280 283 285 284 282 283 282 281 279 276 274 271 269 266 263 260 257 255 253 252 251
207 209 223 226 230 240 232 240 203 188 201 193 186 172 172 182 173 149 155 185 258 238 211 253 291 286 262 289 294 285 288 291 297 290 283 269 276 279 275 275 268 265 265 264 262 263 265 267 270 275 279 284 292 297 294 289 289 290 289 288 287 285 283 280 276 274 272 271 268 264 260 258 256 255
216 213 219 232 236 228 219 233 211 203 194 198 212 203 170 187 180 163 175 207 262 288 234 239 248 276 284 305 238 266 283 297 301 304 267 263 265 269 271 271 273 269 266 265 265 267 269 272 277 283 295 303 301 300 302 302 300 300 299 296 294 291 289 286 281 278 274 273 272 270 267 264 261 258
224 217 226 241 238 225 211 206 202 191 199 198 210 231 206 205 203 202 172 218 223 269 307 300 287 275 199 254 244 251 284 291 303 308 301 277 253 265 267 269 273 269 267 270 272 275 279 285 300 309 308 308 309 308 307 307 306 305 304 304 301 297 292 287 284 279 276 273 273 272 271 269 266 263
219 221 225 237 239 227 224 224 220 202 196 196 202 220 216 221 223 204 204 193 229 251 273 264 291 275 288 231 273 273 260 274 292 301 294 294 291 274 272 278 282 283 284 287 288 288 300 317 314 310 312 313 313 313 311 311 310 310 317 321 319 312 303 297 292 288 284 282 280 278 276 273 270 268
217 221 222 232 230 227 224 228 227 225 217 202 204 213 220 219 230 223 205 212 218 230 253 278 216 261 258 276 266 272 277 281 289 275 291 294 290 292 291 277 281 295 304 297 292 308 318 320 330 335 335 329 322 321 325 327 329 333 332 329 330 331 332 329 318 305 294 286 282 280 277 275 273 273
214 219 220 225 217 212 220 231 227 225 224 230 218 221 223 214 226 233 217 221 214 231 245 265 259 255 263 259 279 277 293 303 292 300 293 291 292 295 292 307 296 296 299 304 332 348 359 353 345 338 332 330 330 330 328 330 336 337 336 335 336 337 338 338 334 326 314 301 288 281 277 275 276 278
212 217 221 223 210 205 211 224 225 222 225 230 232 234 230 221 218 224 235 229 226 224 243 249 286 296 268 302 273 263 256 288 306 311 305 305 293 324 342 331 321 320 346 354 344 356 353 342 335 333 333 331 328 325 330 339 341 343 349 352 348 349 350 351 351 348 341 331 314 299 289 283 279 277
216 216 219 220 212 209 212 218 219 220 227 226 234 231 234 227 206 213 222 224 230 228 240 257 240 263 270 241 283 286 196 247 246 286 322 314 306 40 55 358 324 328 347 359 333 345 336 331 332 331 327 321 321 330 338 346 0 6 1 358 5 12 13 11 8 5 1 356 344 329 313 301 291 280
225 221 219 217 215 214 215 214 221 211 220 223 234 236 231 236 233 235 228 220 218 231 240 246 269 267 279 288 259 289 0 332 329 229 241 296 308 341 347 313 308 309 4 330 327 2 342 342 338 337 328 321 333 349 352 12 16 5 5 21 28 26 25 25 25 23 20 15 11 1 344 327 312 301
229 230 227 224 219 215 218 216 217 216 212 207 224 238 226 234 234 240 241 232 231 239 236 268 272 279 285 272 286 297 290 270 268 264 172 272 275 331 354 306 292 264 307 310 326 346 13 344 338 335 330 331 5 15 26 15 10 12 28 32 31 33 36 37 35 33 30 27 23 19 12 1 345 325
230 232 231 232 225 222 221 220 222 223 223 220 217 224 215 224 225 234 240 242 237 235 241 243 247 268 270 273 263 270 276 154 276 327 348 268 298 337 310 251 287 315 18 347 343 336 5 359 329 333 323 341 29 35 34 6 359 29 32 36 39 40 39 37 36 34 31 29 27 23 19 14 6 348
228 232 233 237 238 234 229 226 221 222 224 227 230 230 224 213 205 218 229 242 238 235 240 242 234 243 268 273 266 265 288 70 229 238 187 218 358 39 3 334 314 304 40 359 354 320 335 32 332 318 315 3 38 42 24 4 31 35 39 43 43 42 39 35 33 31 28 26 23 21 18 15 11 3
226 229 230 232 234 234 231 229 228 224 226 228 232 234 234 229 221 212 207 223 236 228 239 249 242 239 253 271 281 282 308 293 109 124 141 218 304 336 339 245 279 255 112 38 316 295 305 18 326 314 316 31 63 65 25 21 35 38 42 46 45 41 37 32 29 26 23 19 16 14 12 10 7 4
224 226 228 232 231 233 231 231 228 227 232 233 234 238 241 245 242 239 231 219 216 213 219 229 250 231 246 268 271 236 216 135 112 156 253 244 237 202 237 245 240 292 149 120 104 301 304 346 316 323 335 57 54 42 27 32 40 40 45 47 45 41 37 33 29 25 19 13 11 9 7 5 2 0
223 223 223 226 233 232 233 232 230 228 232 237 240 240 239 240 244 239 235 241 245 241 221 217 238 241 192 248 266 257 176 293 275 277 271 237 259 224 224 200 210 265 33 175 107 346 297 318 357 319 346 55 42 27 35 40 43 43 47 50 47 43 40 34 28 22 15 11 8 5 2 0 356 355
223 223 222 224 229 230 228 227 226 227 231 233 237 243 245 240 240 235 230 221 218 221 230 230 235 248 223 239 258 271 228 203 211 211 232 233 205 187 172 298 251 273 264 136 91 210 265 315 13 297 345 46 45 9 37 35 47 49 53 50 47 44 40 34 21 13 9 6 5 3 359 357 353 349
226 225 223 224 229 230 229 229 224 224 222 224 231 234 240 246 246 244 234 223 212 212 219 228 235 241 247 246 252 270 115 169 165 146 124 99 96 110 296 238 263 288 287 110 118 203 269 268 39 290 40 75 44 21 39 14 41 59 58 53 46 42 35 31 12 1 3 1 2 2 360 357 349 344
228 227 224 224 228 230 231 229 220 223 216 216 222 227 234 238 242 252 249 223 215 220 223 227 233 241 249 262 276 262 219 190 171 142 174 227 171 217 276 288 94 258 302 356 150 178 244 283 347 306 15 78 66 34 28 12 20 59 67 55 46 38 23 16 358 349 359 6 6 5 1 358 348 342
231 230 226 221 225 229 233 227 216 219 210 222 224 223 228 237 243 251 245 226 208 212 222 230 238 247 260 266 274 268 213 189 171 171 218 213 159 221 222 241 193 256 337 268 168 124 231 141 342 309 313 67 77 32 32 27 17 20 32 40 35 26 11 348 346 352 359 7 11 7 360 357 351 345
230 234 234 230 226 227 232 229 219 218 210 222 228 228 227 234 239 243 232 215 216 188 201 238 236 250 243 241 238 238 216 195 195 193 209 174 182 223 215 191 115 1 279 247 186 353 273 86 285 117 33 357 283 109 55 49 26 12 360 358 1 347 339 338 340 0 9 8 8 6 358 354 355 350
231 232 235 235 233 231 232 228 222 220 210 217 228 223 223 229 237 237 216 214 207 211 205 221 204 223 208 200 210 214 207 211 209 204 206 198 189 201 185 180 182 183 208 234 170 181 213 137 126 274 147 138 9 301 355 38 18 353 345 344 334 330 318 328 333 353 12 13 7 0 359 355 2 0
230 230 230 233 230 228 231 230 226 222 214 215 224 222 224 221 233 215 187 215 205 196 197 192 177 173 170 199 204 200 201 206 213 217 218 202 187 177 178 181 190 209 220 227 182 149 172 160 135 62 42 100 159 81 295 50 346 329 330 327 317 319 318 320 323 347 12 15 10 360 1 3 2 8
231 230 229 231 229 225 226 227 226 224 220 218 220 232 228 229 231 224 208 194 192 187 161 147 151 170 178 199 211 206 200 199 204 211 213 202 197 197 188 178 172 195 233 224 153 164 131 137 165 133 155 90 263 163 185 28 313 295 303 293 277 301 322 326 340 0 14 14 11 6 357 3 7 5
228 227 230 234 235 231 229 230 228 226 224 217 224 235 241 240 237 232 223 209 192 181 170 161 173 193 201 205 219 217 209 203 199 209 206 200 197 199 194 185 170 180 217 152 178 182 150 148 155 133 164 176 166 275 119 164 255 300 308 296 287 317 343 5 14 4 1 3 2 1 3 7 12 6
227 229 229 232 234 232 232 231 229 228 220 219 227 230 236 240 237 227 228 221 205 178 174 183 194 212 216 210 218 220 209 195 198 205 191 179 178 171 193 210 212 215 178 155 205 187 175 144 152 159 143 158 160 162 179 202 235 238 268 285 265 306 2 23 13 4 357 352 352 354 2 10 8 15
229 229 230 232 234 234 232 230 231 235 233 230 234 234 232 224 219 222 218 214 186 187 198 206 215 226 220 213 212 206 192 176 124 124 116 142 163 181 184 201 210 206 182 186 173 161 155 160 162 159 147 158 143 183 150 186 205 242 263 328 333 309 354 23 24 7 348 344 349 350 354 345 354 360
230 230 232 234 237 238 235 233 230 233 232 229 228 234 228 208 216 210 206 199 195 212 213 217 224 228 221 218 231 187 134 123 144 145 142 142 149 137 132 110 28 326 310 143 130 136 150 165 164 152 134 137 144 143 166 161 205 247 295 30 324 298 357 3 358 358 0 344 335 338 328 342 348 359
243 245 239 239 238 230 224 223 229 229 235 240 244 212 195 198 203 202 197 200 205 214 217 223 228 227 207 106 120 152 147 136 151 152 138 136 152 146 157 134 119 83 66 86 124 150 167 176 176 146 121 123 95 135 169 147 137 186 323 356 43 53 311 337 338 351 351 333 314 317 317 335 354 7
233 238 266 299 270 232 246 238 237 228 222 221 216 199 182 194 202 211 216 219 227 227 220 225 170 129 147 181 173 127 123 138 156 157 148 151 160 167 146 114 152 146 125 118 129 188 184 174 148 121 121 146 140 182 136 125 152 162 144 321 38 301 319 335 332 326 346 330 332 347 344 355 5 6
209 181 203 232 226 221 223 225 223 215 208 207 195 180 172 182 186 192 186 206 213 219 207 215 213 209 182 129 83 109 129 157 171 189 159 165 146 176 135 159 169 161 151 165 170 179 105 52 59 107 120 123 143 151 139 112 241 188 136 192 78 338 312 312 318 313 329 340 344 324 348 354 5 3
211 215 225 226 226 225 220 221 216 209 191 180 170 184 174 171 184 192 200 215 241 215 210 211 193 162 143 135 148 154 165 169 185 186 163 174 169 156 160 160 183 181 153 161 171 169 162 135 117 85 80 68 113 163 155 142 197 210 198 164 156 259 269 291 302 305 331 316 320 337 356 0 357 359
211 219 220 226 227 229 228 227 225 209 191 179 173 176 180 171 140 65 28 326 210 210 174 60 140 158 169 167 166 172 179 180 187 184 192 167 173 167 164 153 164 174 170 161 178 194 167 147 116 65 21 18 15 317 229 171 132 183 128 237 203 207 266 265 281 304 328 320 340 337 337 337 5 13
210 215 220 223 225 225 227 229 224 209 196 182 175 173 156 121 94 174 218 207 128 116 160 178 182 180 178 174 180 182 181 180 181 174 180 176 169 162 160 167 171 186 192 177 177 180 133 126 113 103 83 26 38 356 319 264 159 150 153 219 213 195 242 256 284 306 319 303 308 327 12 339 324 335
217 218 220 224 226 225 228 226 220 210 197 187 167 135 129 127 168 220 216 160 179 188 189 185 201 187 175 170 170 175 166 159 170 177 187 193 178 163 160 182 185 187 193 218 166 156 128 109 120 119 113 99 110 242 265 302 293 229 156 186 226 206 214 218 334 303 272 243 292 277 286 300 310 319
216 216 220 226 231 231 229 227 218 211 187 103 90 133 162 157 190 233 185 157 197 198 194 198 197 168 177 168 162 167 166 167 162 172 189 173 161 176 179 181 190 183 196 196 139 167 157 143 147 156 142 162 203 236 277 309 350 266 190 167 183 227 180 190 257 240 263 265 237 255 232 258 257 265
222 222 222 225 226 227 225 224 205 89 73 102 165 200 194 176 186 201 153 180 194 188 168 152 162 207 206 183 168 162 165 160 171 184 182 184 180 178 194 191 180 204 154 147 75 132 156 165 176 164 171 172 185 207 188 197 234 266 185 169 172 167 204 186 223 252 234 253 261 285 266 256 273 287
213 217 225 230 239 240 269 51 56 87 157 179 171 212 205 179 187 179 173 174 174 158 165 171 173 169 193 192 173 168 170 181 188 188 187 181 182 180 188 190 184 184 168 180 196 180 167 203 202 196 193 202 212 191 170 171 188 335 300 263 215 207 201 173 208 209 263 236 186 11 295 324 304 310
309 319 276 258 253 189 80 78 185 192 205 171 174 199 190 181 175 176 170 171 163 160 168 182 179 174 173 179 175 169 182 205 204 197 184 175 182 187 188 169 175 182 175 209 207 201 219 214 217 212 186 112 86 88 70 323 290 283 266 244 216 238 212 203 196 171 209 217 138 257 280 291 289 323
140 219 244 257 233 119 138 209 213 179 174 181 179 174 176 160 157 152 150 145 148 158 171 180 185 170 164 166 177 177 178 181 183 176 175 169 180 196 180 164 180 186 172 203 217 219 240 272 319 121 166 120 105 138 225 225 246 264 253 266 237 210 196 217 213 191 192 186 174 267 284 324 37 338
195 197 246 334 71 126 153 172 169 179 158 153 144 146 128 118 109 127 131 149 160 168 177 176 174 162 155 168 171 176 163 165 176 177 171 173 173 173 172 192 194 193 195 215 225 243 266 290 154 134 131 164 199 178 218 232 226 239 274 280 252 216 256 281 344 317 247 207 202 209 206 231 134 281
137 104 76 56 73 104 121 131 131 126 131 135 131 120 112 111 114 118 143 163 158 157 149 163 174 183 176 165 157 164 162 163 175 173 171 174 167 165 170 182 188 173 174 188 230 263 292 319 236 167 150 207 187 172 229 238 257 245 241 242 230 199 226 242 315 329 315 291 263 248 244 245 249 277
87 87 82 60 59 46 44 77 110 120 113 109 104 106 112 117 126 134 135 127 124 130 147 151 154 177 148 158 155 155 138 126 138 138 130 137 144 148 144 149 137 131 143 140 155 284 322 319 358 55 208 237 151 198 225 211 233 254 258 204 247 232 226 197 223 241 258 274 259 244 245 260 279 289